Regional Weather Roundup
Issued by NWS

Home | Current Version | Previous Version | Text Only | Print | Product List | Glossary On
Versions: 1 2 3 4 5 6 7 8 9 10 11 12 13 14 15 16 17 18 19 20 21 22 23 24 25 26 27 28
000
ASUS44 KLIX 220413
RWRLA
LOUISIANA WEATHER ROUNDUP
NATIONAL WEATHER SERVICE NEW ORLEANS LA
1000 PM CST SAT JAN 21 2017

NOTE: "FAIR" INDICATES FEW OR NO CLOUDS BELOW 12,000 FEET WITH NO
      SIGNIFICANT WEATHER AND/OR OBSTRUCTIONS TO VISIBILITY.
      SKY/WX - SKY CONDITION AND SIGNIFICANT WEATHER.
      TMP - AIR TEMPERATURE.    DP   - DEWPOINT TEMPERATURE.
      RH  - RELATIVE HUMIDITY.  PRES - PRESSURE.
      HX  - HEAT INDEX.         WCI  - WIND CHILL INDEX.

*  THESE STATIONS ARE NOT NWS OR FAA STATIONS AND ARE NOT UNDER
   NWS QUALITY CONTROL.

LAZ040-048-061>063-065-066-069-220500-
SOUTHEAST LOUISIANA

CITY           SKY/WX    TMP DP  RH WIND       PRES   REMARKS
N.O. AUDUBON   NOT AVBL
N.O. INTL ARPT PTCLDY    72  69  90 SW14      29.52S
N.O. LAKEFRONT PTCLDY    71  69  93 SW17      29.53R
N.O. DOWNTOWN* NOT AVBL
RESERVE*       FAIR      73  70  90 SW13      29.52
SLIDELL        CLOUDY    72  70  93 SW8G18    29.52R
BATON ROUGE    MOCLDY    71  67  87 SW13      29.49S
BOOTHVILLE     CLOUDY    71  69  93 S17       29.58R FOG
BELLE CHASSE   PTCLDY    74  70  87 SW10      29.53R
BOGALUSA*      CLOUDY    68  64  86 S5        29.53R
GALLIANO*      CLOUDY    73  69  87 SW12G17   29.55F FOG
NEW ROADS*     CLOUDY    70  67  91 SW8G17    29.50R FOG
GONZALES*      FAIR      72  67  85 SW10G20   29.50F
HAMMOND*       CLEAR     68  64  88 SW3       29.50F FOG
HOUMA*         CLOUDY    73  71  93 SW9       29.55S FOG
PORT FOURCHON* PTCLDY    73  72  94 SW13G20   29.57S FOG

$$

LAZ041-044-053-054-220500-
SOUTHWEST LOUISIANA

CITY           SKY/WX    TMP DP  RH WIND       PRES   REMARKS
LAKE CHARLES   CLEAR     65  65 100 CALM      29.50R FOG
LAFAYETTE      MOCLDY    72  68  87 SW8       29.49F FOG
PATTERSON      CLOUDY    69  69 100 SW12      29.53F FOG
SALT POINT     NOT AVBL
NEW IBERIA     MOCLDY    70  66  87 SW7       29.51F FOG
CHENAULT AIRPK CLOUDY    66  66 100 W6        29.50R FOG

$$

LAZ027-028-220500-
CENTRAL LOUISIANA

CITY           SKY/WX    TMP DP  RH WIND       PRES   REMARKS
FORT POLK      MOCLDY    66  66 100 SW10      29.48S FOG
ALEXANDRIA INT MOCLDY    65  65 100 SW8       29.46R FOG
ALEXANDRIA     MOCLDY    67  66  97 SW12      29.47R FOG

$$

LAZ001-002-220500-
NORTHWEST LOUISIANA

CITY           SKY/WX    TMP DP  RH WIND       PRES   REMARKS
SHREVEPORT     PTCLDY    63  60  90 SW6       29.45S
BARKSDALE AFB  PTCLDY    64  60  87 SW7       29.45S
DTN SHREVEPORT CLEAR     64  59  83 W5        29.44F

$$

LAZ014-016-220500-
NORTHEAST LOUISIANA

CITY           SKY/WX    TMP DP  RH WIND       PRES   REMARKS
MONROE         CLOUDY    66  62  87 SW14      29.46R
TALLULAH       CLOUDY    65  54  67 S10       29.44R

$$





USA.gov is the U.S. government's official web portal to all federal, state and local government web resources and services.